Wind_Speed
23 21 21 22 27 29 32 33 37 38 39 40 39 42 42 44 43 43 46 45 44 45 47 45 46 45 46 47 53 60 57 58 56 60 56 55 53 51 49 49 52 48 47 43 43
23 23 24 29 33 34 35 40 41 42 44 43 44 45 46 48 47 49 50 49 50 50 49 51 50 49 49 48 51 58 61 51 55 65 66 64 59 53 52 52 52 50 49 46 45
23 26 29 33 34 36 38 42 42 43 46 46 47 49 51 53 53 54 54 55 56 58 59 58 56 58 54 52 56 56 56 60 67 67 72 70 64 58 57 55 54 51 52 49 46
27 30 32 34 35 37 40 42 43 45 47 50 50 52 54 57 59 60 60 61 62 64 65 66 67 64 62 68 61 60 57 67 71 72 71 72 71 65 60 55 57 54 55 53 50
29 33 33 34 36 39 40 43 45 48 49 53 54 55 57 61 63 65 67 67 68 69 70 72 72 72 75 72 66 63 63 67 73 75 75 73 71 71 63 62 60 56 56 53 53
30 32 32 36 39 40 42 44 48 49 53 55 56 59 62 67 68 70 71 72 70 68 69 71 73 75 72 68 69 66 67 69 72 76 79 79 74 74 65 63 61 58 58 56 57
30 32 34 38 40 41 44 46 50 53 57 60 63 65 68 68 70 68 66 64 61 58 57 58 57 55 51 51 51 58 63 65 69 79 81 84 82 70 67 67 68 65 61 60 60
31 35 38 39 42 42 45 50 54 58 60 64 66 71 72 68 63 62 53 48 50 50 47 38 36 36 34 36 38 43 51 59 65 77 84 89 77 68 72 72 70 69 67 61 61
34 38 40 43 43 45 48 53 58 60 63 68 71 74 68 65 48 46 45 42 42 36 31 29 32 32 29 33 37 33 39 39 51 67 81 87 77 80 80 77 76 72 66 65 63
34 38 41 43 45 47 51 56 59 62 63 69 72 73 66 46 41 40 38 35 33 33 31 30 32 31 28 32 34 30 38 37 41 54 68 82 87 85 83 80 80 74 70 66 65
35 38 42 44 47 49 53 56 62 65 66 69 71 63 42 41 36 34 35 33 35 36 34 34 32 31 31 36 37 35 41 43 41 40 49 72 85 90 83 84 83 79 71 68 65
37 39 42 44 47 51 56 60 60 64 65 68 62 52 41 37 30 31 34 35 37 31 30 31 29 26 28 26 31 39 43 41 39 33 42 56 71 83 90 87 83 78 79 69 67
37 41 43 45 49 52 56 58 59 62 64 64 53 41 36 35 32 29 30 36 29 23 23 26 19 29 29 29 34 33 37 40 39 39 43 47 64 76 90 87 86 84 78 71 66
37 42 44 46 49 53 55 55 58 62 61 55 46 39 39 37 33 31 30 33 25 20 22 20 23 25 29 32 30 30 24 31 41 45 45 38 58 63 81 89 85 78 75 73 70
38 42 44 46 50 54 54 55 58 60 58 53 43 41 42 41 38 31 35 33 28 23 28 23 28 31 26 23 27 33 24 25 30 41 45 41 48 65 78 87 85 78 76 72 68
40 43 43 45 49 52 53 54 56 57 54 47 43 43 42 40 34 30 32 31 29 25 23 36 19 20 20 19 24 29 31 24 23 33 46 39 44 61 70 80 80 77 74 69 63
39 41 42 46 49 52 52 52 52 54 53 48 42 42 42 42 34 29 30 31 34 37 37 32 16 14 11 9 14 15 28 21 25 30 38 35 45 58 60 69 74 75 72 65 63
37 39 42 46 47 50 50 52 50 52 50 48 44 41 40 41 31 26 27 27 33 37 45 31 11 14 12 4 4 10 22 23 29 27 22 26 44 48 49 60 72 75 71 66 61
36 38 42 46 45 48 48 48 47 53 54 51 46 40 37 36 39 28 27 26 32 43 46 40 21 16 10 14 4 7 8 8 15 15 13 16 28 25 38 50 61 66 64 66 64
35 37 42 44 44 47 46 46 46 50 51 51 48 43 36 33 34 30 28 29 30 40 46 40 21 25 23 16 4 14 12 18 22 11 8 6 8 15 32 42 50 56 54 60 60
35 36 40 41 43 46 45 47 47 51 49 50 47 46 35 30 29 30 30 28 32 36 43 28 21 21 17 16 10 9 11 14 17 15 7 11 14 19 23 33 41 46 50 53 55
33 35 38 39 41 45 45 46 47 51 51 50 48 48 35 29 24 26 27 30 32 38 38 28 14 16 21 7 10 12 17 3 12 9 12 4 12 13 21 31 34 42 44 45 48
31 33 37 37 41 43 45 46 48 52 53 50 51 50 32 26 25 26 25 26 30 35 36 28 13 8 5 13 2 5 8 15 10 7 10 2 10 12 20 31 38 37 40 39 41
28 32 35 36 41 43 42 44 48 53 51 49 50 45 26 20 24 22 22 23 26 30 30 34 24 14 10 10 4 1 4 7 7 7 7 6 17 16 20 33 40 38 37 39 40
27 30 35 36 40 42 40 43 48 49 51 49 47 37 25 19 21 20 17 18 22 26 31 33 14 13 8 9 12 8 4 8 7 10 11 8 16 21 22 40 43 41 39 39 39
25 29 33 35 39 42 39 42 45 47 51 48 44 30 28 29 23 13 17 14 18 24 31 31 10 11 11 6 6 4 17 12 11 8 10 3 17 23 22 31 47 41 34 31 32
24 28 31 33 37 39 38 42 42 45 50 49 42 28 29 27 14 12 14 14 16 19 29 30 12 15 17 18 14 16 14 9 7 6 8 17 26 21 17 27 44 41 33 29 27
Wind_Direction
316 309 305 305 305 300 303 304 306 306 308 307 305 305 302 303 304 305 305 299 292 286 278 277 274 268 263 260 255 247 248 249 245 246 244 242 235 232 230 229 234 233 227 225 224
312 310 307 302 305 300 298 302 305 306 308 308 306 305 306 306 304 301 300 298 293 288 281 276 272 271 264 259 258 253 248 252 247 245 246 245 239 232 230 230 231 232 229 225 222
317 312 308 305 305 302 300 306 307 308 309 306 307 307 307 305 303 301 296 293 292 289 285 281 274 273 264 264 263 257 252 243 239 237 240 240 235 233 228 227 229 229 229 226 224
314 313 309 308 308 305 307 309 309 311 309 308 308 309 307 305 301 299 295 292 288 285 282 279 276 272 267 271 261 255 251 241 238 236 237 239 238 231 227 226 228 226 227 227 223
311 313 311 311 311 312 314 313 313 313 313 312 312 310 307 304 301 297 294 290 286 281 277 276 275 271 273 270 262 254 249 244 237 234 235 235 234 234 229 225 224 224 227 227 225
312 313 315 316 317 319 318 318 317 314 314 313 311 309 307 304 302 298 293 288 284 282 279 276 275 275 272 266 262 257 250 243 237 233 230 234 232 232 227 229 228 225 224 224 227
313 316 318 320 321 324 324 322 318 317 317 316 314 314 311 307 304 297 293 291 290 288 285 281 279 277 274 266 260 256 250 243 235 231 228 230 229 227 226 227 226 225 225 221 225
320 320 322 323 324 328 325 323 322 320 319 318 319 319 315 311 303 300 297 296 296 293 290 285 279 277 274 266 261 258 252 245 233 230 228 227 226 222 226 226 228 229 223 224 224
322 323 322 326 329 330 328 326 323 322 323 324 326 325 318 313 314 305 301 301 300 302 299 291 285 285 281 271 262 260 268 258 242 232 230 228 221 220 224 225 226 226 226 224 223
322 324 325 329 333 331 330 327 326 327 331 331 332 325 318 318 314 306 309 311 311 307 301 290 282 279 277 272 267 254 255 249 248 235 233 226 220 220 221 223 224 224 224 223 222
322 325 327 331 334 334 331 328 327 332 337 336 332 326 319 318 313 308 313 316 312 305 299 292 281 278 278 274 269 259 253 255 250 248 241 232 224 222 218 220 221 220 223 224 221
324 326 329 334 336 335 333 331 334 335 338 338 336 331 327 326 320 307 314 319 316 311 300 291 288 288 277 276 275 261 255 255 251 252 249 235 231 225 218 215 218 219 219 220 220
324 327 332 337 337 336 334 334 337 338 341 340 345 341 335 332 328 320 321 326 327 321 306 302 300 287 282 271 279 271 261 249 248 241 241 243 231 226 218 215 217 213 216 218 221
326 329 334 339 338 337 335 338 339 342 343 344 349 347 339 335 333 327 332 337 338 334 308 316 297 287 281 275 274 272 277 256 242 239 239 247 239 229 221 215 214 217 217 215 218
325 330 336 339 340 336 337 341 343 346 346 347 346 347 341 340 337 337 339 342 343 344 318 326 318 302 289 287 261 252 255 256 252 242 241 230 244 217 219 215 211 213 215 215 217
326 331 336 340 339 338 340 344 347 350 347 345 344 345 346 344 339 350 341 338 336 339 326 336 324 294 291 278 260 253 239 246 257 243 239 228 241 217 219 213 211 211 214 212 215
329 332 338 341 339 340 343 347 349 353 349 345 342 341 344 348 343 346 346 345 342 342 348 349 331 297 278 274 283 246 228 225 251 237 240 232 233 219 215 213 211 211 213 213 214
330 334 339 341 340 343 345 350 353 353 349 350 339 338 345 344 349 348 356 350 348 341 347 360 12 335 254 299 235 261 213 234 243 234 233 230 230 214 208 214 212 211 211 213 212
331 337 339 339 341 345 348 354 353 353 350 349 349 341 340 344 351 354 1 359 352 342 351 359 13 16 335 294 176 232 250 235 228 221 236 252 227 210 200 211 212 214 213 211 211
331 338 337 337 342 346 348 352 353 354 353 352 351 348 338 347 349 346 353 1 5 344 350 5 27 13 36 57 118 142 187 210 202 206 209 47 141 161 196 204 210 215 213 212 214
331 338 336 338 342 345 349 348 350 354 353 350 351 349 342 345 348 349 344 353 343 354 350 12 65 41 42 53 103 168 201 183 170 147 84 112 131 153 186 197 199 207 209 209 214
333 335 336 339 341 343 350 349 350 352 351 348 349 346 342 337 350 354 350 347 349 344 360 28 69 44 47 97 68 62 6 258 332 349 62 118 150 154 165 180 189 202 204 207 210
335 333 336 339 339 342 348 348 349 352 351 348 349 346 344 341 351 350 347 347 345 340 1 31 47 61 53 33 9 335 273 335 5 3 42 320 172 159 169 176 180 188 195 199 204
334 334 337 339 342 340 343 345 347 351 352 350 350 348 355 351 351 353 351 350 341 340 4 19 15 9 355 30 24 10 298 344 356 325 314 199 183 180 174 177 176 180 187 197 205
332 334 338 341 343 343 341 342 347 353 354 353 354 351 3 3 355 349 356 358 344 346 355 14 14 22 54 3 2 351 293 334 292 289 278 237 204 189 194 180 176 177 183 191 200
330 334 339 342 344 346 347 345 352 357 359 358 357 353 352 345 343 349 5 3 338 341 348 13 35 58 52 7 72 346 310 285 262 264 292 159 156 190 197 180 181 180 182 185 187
326 334 339 342 346 349 353 350 358 1 2 1 359 358 352 355 27 15 5 18 6 355 350 15 48 68 69 63 81 53 53 70 85 97 101 126 137 134 154 171 177 181 181 180 189
Height
5787 5784 5782 5780 5777 5773 5772 5768 5764 5760 5755 5750 5746 5741 5735 5730 5725 5720 5714 5711 5707 5704 5701 5700 5698 5698 5697 5697 5696 5696 5699 5706 5717 5717 5722 5722 5725 5731 5734 5738 5740 5748 5754 5760 5763
5784 5782 5779 5777 5773 5769 5765 5762 5757 5752 5746 5741 5736 5730 5724 5718 5712 5707 5703 5698 5694 5690 5687 5686 5685 5683 5683 5682 5682 5681 5684 5700 5704 5699 5701 5705 5711 5719 5723 5728 5732 5739 5746 5751 5757
5781 5778 5775 5772 5768 5765 5761 5756 5750 5744 5738 5731 5724 5719 5714 5706 5701 5694 5688 5683 5678 5673 5669 5667 5666 5664 5664 5665 5665 5666 5674 5681 5674 5680 5680 5689 5698 5706 5710 5717 5723 5730 5737 5744 5749
5777 5774 5770 5766 5762 5758 5754 5748 5743 5736 5729 5721 5714 5707 5701 5692 5685 5677 5671 5665 5660 5654 5650 5646 5643 5642 5642 5642 5643 5646 5654 5652 5658 5662 5666 5675 5683 5691 5698 5709 5714 5720 5726 5733 5740
5773 5769 5765 5761 5756 5752 5746 5740 5734 5726 5719 5711 5702 5694 5686 5677 5669 5660 5651 5644 5638 5632 5627 5623 5619 5616 5617 5616 5618 5625 5631 5632 5637 5646 5652 5658 5668 5675 5687 5694 5701 5709 5713 5724 5731
5768 5764 5760 5755 5750 5744 5738 5731 5724 5716 5709 5700 5691 5681 5672 5661 5650 5638 5628 5619 5613 5608 5603 5598 5594 5591 5593 5592 5594 5597 5603 5611 5616 5627 5636 5641 5651 5658 5680 5687 5693 5695 5704 5712 5720
5763 5759 5753 5749 5743 5736 5729 5723 5715 5707 5696 5686 5676 5666 5654 5641 5629 5615 5605 5598 5591 5586 5582 5577 5574 5572 5571 5571 5574 5575 5580 5586 5597 5605 5616 5622 5630 5652 5669 5673 5677 5685 5693 5701 5708
5758 5755 5750 5742 5736 5728 5721 5714 5705 5695 5684 5674 5661 5647 5634 5620 5608 5596 5587 5583 5577 5572 5567 5563 5560 5559 5560 5561 5562 5561 5563 5567 5579 5584 5594 5598 5621 5646 5648 5655 5663 5672 5679 5690 5699
5753 5750 5745 5737 5729 5721 5713 5705 5695 5684 5672 5659 5646 5630 5614 5600 5591 5581 5577 5574 5568 5562 5557 5555 5552 5552 5553 5551 5550 5555 5553 5557 5559 5564 5571 5579 5611 5620 5626 5634 5646 5657 5669 5679 5689
5748 5745 5739 5731 5723 5713 5704 5695 5684 5673 5660 5646 5631 5615 5601 5589 5583 5573 5569 5565 5560 5555 5551 5548 5544 5544 5544 5541 5540 5544 5541 5545 5544 5552 5555 5565 5585 5593 5606 5617 5631 5645 5656 5666 5678
5743 5739 5733 5725 5716 5706 5697 5686 5678 5664 5649 5633 5618 5602 5589 5583 5575 5568 5564 5559 5554 5548 5543 5538 5536 5536 5536 5531 5531 5534 5532 5533 5538 5545 5545 5549 5557 5570 5589 5600 5613 5627 5643 5656 5668
5739 5734 5727 5718 5708 5698 5688 5677 5666 5653 5643 5626 5610 5593 5583 5576 5571 5562 5558 5553 5545 5540 5534 5531 5528 5529 5525 5524 5523 5524 5523 5525 5533 5538 5534 5537 5540 5552 5569 5585 5602 5618 5629 5645 5657
5735 5730 5721 5711 5702 5691 5681 5671 5658 5647 5633 5618 5603 5588 5579 5572 5565 5560 5554 5547 5540 5535 5529 5526 5527 5519 5518 5517 5515 5512 5511 5518 5521 5525 5522 5522 5525 5538 5556 5573 5586 5598 5617 5633 5648
5731 5725 5715 5705 5697 5685 5676 5664 5653 5639 5626 5613 5598 5587 5577 5569 5562 5553 5548 5542 5536 5531 5526 5525 5519 5514 5511 5507 5508 5505 5507 5506 5509 5511 5512 5518 5516 5527 5542 5561 5577 5595 5611 5623 5636
5726 5719 5709 5699 5690 5680 5671 5659 5647 5634 5622 5607 5595 5584 5573 5565 5556 5550 5542 5538 5533 5530 5523 5521 5510 5505 5500 5497 5496 5495 5499 5500 5501 5502 5506 5510 5506 5525 5534 5549 5569 5585 5600 5616 5629
5721 5714 5704 5693 5685 5676 5665 5655 5643 5632 5617 5607 5593 5582 5575 5565 5556 5550 5542 5536 5531 5528 5521 5512 5505 5497 5492 5489 5488 5488 5492 5495 5495 5497 5492 5505 5502 5513 5523 5547 5567 5581 5593 5609 5623
5716 5709 5699 5688 5681 5671 5661 5652 5641 5629 5616 5603 5592 5582 5572 5564 5555 5549 5542 5535 5528 5520 5516 5509 5499 5491 5487 5484 5483 5481 5485 5490 5490 5487 5489 5500 5496 5509 5530 5547 5565 5576 5587 5603 5616
5712 5705 5694 5685 5677 5668 5658 5649 5638 5628 5616 5603 5590 5581 5572 5563 5557 5549 5543 5536 5529 5522 5514 5503 5494 5486 5483 5480 5478 5480 5483 5486 5486 5487 5490 5494 5488 5507 5529 5540 5553 5563 5580 5596 5608
5708 5700 5691 5683 5675 5665 5656 5646 5635 5623 5611 5599 5589 5579 5572 5562 5552 5548 5543 5538 5530 5522 5513 5501 5495 5488 5482 5477 5478 5479 5483 5487 5486 5488 5491 5492 5498 5510 5523 5535 5549 5562 5578 5589 5603
5704 5696 5688 5680 5672 5663 5654 5645 5634 5622 5609 5596 5585 5576 5567 5563 5556 5547 5543 5539 5532 5524 5516 5508 5500 5493 5486 5482 5483 5481 5483 5484 5486 5490 5492 5498 5503 5513 5521 5533 5547 5560 5573 5587 5599
5701 5693 5686 5677 5670 5662 5652 5642 5632 5620 5608 5596 5585 5574 5564 5560 5555 5548 5543 5541 5534 5530 5521 5512 5505 5503 5497 5492 5490 5489 5487 5487 5487 5489 5496 5506 5511 5515 5522 5530 5542 5557 5570 5582 5594
5698 5691 5684 5675 5668 5659 5649 5640 5631 5619 5606 5594 5584 5573 5563 5557 5555 5550 5544 5538 5535 5530 5522 5516 5512 5507 5503 5498 5498 5497 5497 5496 5495 5498 5503 5506 5517 5519 5523 5530 5543 5555 5567 5580 5590
5694 5688 5681 5673 5666 5657 5648 5639 5629 5618 5604 5591 5580 5569 5561 5554 5553 5548 5545 5541 5538 5533 5525 5520 5516 5512 5509 5506 5502 5500 5500 5499 5500 5502 5506 5512 5520 5521 5525 5531 5541 5554 5566 5578 5589
5692 5686 5679 5672 5663 5655 5647 5638 5628 5615 5603 5591 5579 5567 5560 5555 5553 5550 5546 5544 5542 5538 5531 5525 5520 5516 5514 5510 5508 5506 5505 5505 5504 5505 5508 5514 5519 5524 5528 5534 5542 5553 5565 5576 5584
5690 5684 5676 5669 5662 5653 5645 5636 5626 5615 5603 5590 5578 5568 5562 5559 5556 5552 5549 5546 5545 5543 5537 5530 5526 5521 5517 5515 5512 5508 5508 5507 5507 5507 5510 5512 5516 5522 5528 5534 5543 5554 5564 5573 5581
5687 5682 5675 5668 5661 5653 5644 5636 5625 5613 5603 5590 5579 5569 5564 5559 5555 5553 5550 5549 5548 5546 5540 5535 5531 5527 5522 5519 5516 5513 5509 5505 5506 5506 5507 5510 5514 5521 5530 5536 5545 5555 5565 5573 5580
5684 5679 5673 5667 5659 5652 5643 5635 5624 5613 5604 5590 5581 5573 5565 5558 5554 5555 5554 5553 5553 5551 5546 5539 5535 5532 5528 5523 5520 5517 5511 5509 5508 5508 5510 5514 5519 5525 5532 5539 5548 5558 5566 5573 5580